Tracking 35331 objects as of 16-Sep-2026
HD Live streaming from Space Station
objects crossing your sky now

KUIPER-00615

Track KUIPER-00615 now!
10-day predictions
KUIPER-00615 is classified as:


NORAD ID: 69774
Int'l Code: 2026-151M
Launch date: July 2, 2026
Source: United States (US)
Launch site: AIR FORCE EASTERN TEST RANGE (AFETR)
Your satellite tracking list
Your tracking list is empty




NASA's NSSDC Master Catalog

Two Line Element Set (TLE):
1 69774U 26151M   26259.25002315 -.00018932  00000-0 -24626-2 0  9997
2 69774  51.8999 252.9249 0001328 126.8009 332.1467 14.79911167  5163
Source of the keplerian elements: AFSPC